Home   Weather   Kyoto   Past weeks

Flag for Japan Past Weather in Kyoto, Japan — Yesterday and Last 2 Weeks

Now
50 °F

Clear.


Feels Like: 49 °F
Forecast: 31 / 59 °F
Wind: 3 mph from Northwest

Location: Osaka International Airport

Current Time: Dec 3, 2016 at 8:41:49 pm

Latest Report: Dec 3, 2016 at 8:00 pm


Visibility: 10 mi

Pressure: 30.27 "Hg

Humidity: 71%

Dew Point: 41 °F

Location of KyotoLocation

Past Weather in Kyoto — Graph

°F

Kyoto Temperature Yesterday

Maximum temperature yesterday: 59 °F (at 1:00 pm)
Minimum temperature yesterday: 46 °F (at 7:00 am)
Average temperature yesterday: 52 °F

High & Low Weather Summary for the Past Weeks

 TemperatureHumidityPressure
High70 °F (Nov 20, 2:00 pm)100% (Nov 19, 7:00 pm)30.48 "Hg (Nov 19, 7:00 pm)
Low39 °F (Nov 25, 6:00 am)36% (Dec 2, 1:00 pm)29.86 "Hg (Nov 19, 12:00 pm)
Average55 °F67%30.12 "Hg
* Reported Nov 18 7:00 pm — Dec 3 7:00 pm, Kyoto, Weather by CustomWeather, © 2016

Note: Actual official high and low records may vary slightly from our data, if they occured in-between our weather recording intervals... More about our weather records

Advertising

Kyoto Weather History for the Previous 24 Hours

Scroll right to see more
 ConditionsComfort  
Time TempWeatherWind HumidityBarometerVisibility
7:00 pm
Sat, Dec 3
52 °FClear.5 mph67%30.27 "Hg10 mi
6:00 pm55 °FClear.1 mph55%30.27 "Hg10 mi
5:00 pm55 °FClear.1 mph55%30.27 "Hg10 mi
4:00 pm59 °FSunny.5 mph45%30.24 "Hg10 mi
3:00 pm61 °FPassing clouds.6 mph42%30.24 "HgN/A
2:00 pm61 °FSunny.2 mph42%30.24 "Hg10 mi
1:00 pm59 °FSunny.2 mph45%30.27 "Hg10 mi
12:00 pm57 °FPassing clouds.2 mph44%30.30 "HgN/A
11:00 am55 °FPassing clouds.1 mph51%30.33 "HgN/A
10:00 am52 °FPassing clouds.1 mph58%30.33 "HgN/A
9:00 am48 °FPassing clouds.3 mph66%30.36 "HgN/A
8:00 am43 °FSunny.3 mph81%30.36 "Hg10 mi
7:00 am39 °FSunny.3 mph87%30.33 "Hg10 mi
6:00 am39 °FClear.2 mph87%30.33 "Hg10 mi
5:00 am41 °FClear.3 mph81%30.30 "Hg10 mi
8:00 pm
Fri, Dec 2
48 °FClear.7 mph66%30.30 "Hg10 mi
Weather by CustomWeather, © 2016

See weather overviewHow to use our weather pages